This is the latest recevied weather packets stored in our database for station/object N9BLE. If no packets are shown the sender has not sent any weather packets the latest 10 day(s).
| Time | Temp. | Humidity | Pressure | Rain* | Wind** | Luminosity | Snow |
|---|---|---|---|---|---|---|---|
| 1777996629 | 11.67° C | 39% | 1012.8 hPa | 0 mm | - | 260 W/m² | - |
| 1777996326 | 12.22° C | 39% | 1012.9 hPa | 0 mm | - | 246 W/m² | - |
| 1777996022 | 12.22° C | 37% | 1012.7 hPa | 0 mm | - | 262 W/m² | - |
| 1777995718 | 11.67° C | 43% | 1012.7 hPa | 0 mm | - | 252 W/m² | - |
| 1777995415 | 11.67° C | 36% | 1012.7 hPa | 0 mm | - | 241 W/m² | - |
| 1777995112 | 12.22° C | 38% | 1012.6 hPa | 0 mm | - | 229 W/m² | - |
| 1777994809 | 12.22° C | 40% | 1012.7 hPa | 0 mm | - | 206 W/m² | - |
| 1777994504 | 11.67° C | 43% | 1012.7 hPa | 0 mm | - | 243 W/m² | - |
| 1777994200 | 11.11° C | 40% | 1012.5 hPa | 0 mm | - | 215 W/m² | - |
| 1777993898 | 11.67° C | 40% | 1012.5 hPa | 0 mm | - | 207 W/m² | - |
| 1777993594 | 11.11° C | 43% | 1012.5 hPa | 0 mm | - | 218 W/m² | - |
| 1777993291 | 11.11° C | 47% | 1012.7 hPa | 0 mm | - | 193 W/m² | - |
| 1777992986 | 10.56° C | 47% | 1012.8 hPa | 0 mm | - | 187 W/m² | - |
| 1777992685 | 10.56° C | 48% | 1012.7 hPa | 0 mm | - | 167 W/m² | - |
| 1777992382 | 10.56° C | 46% | 1012.7 hPa | 0 mm | - | 184 W/m² | - |
| 1777992080 | 10.56° C | 47% | 1012.6 hPa | 0 mm | - | 190 W/m² | - |
| 1777991777 | 10.56° C | 50% | 1012.6 hPa | 0 mm | - | 179 W/m² | - |
| 1777991474 | 10.56° C | 51% | 1012.7 hPa | 0 mm | - | 150 W/m² | - |
| 1777991171 | 10.56° C | 53% | 1012.6 hPa | 0 mm | - | 177 W/m² | - |
| 1777990869 | 10.56° C | 49% | 1012.8 hPa | 0 mm | - | 175 W/m² | - |
| 1777990566 | 10° C | 50% | 1012.9 hPa | 0 mm | - | 193 W/m² | - |
| 1777989959 | 10° C | 52% | 1012.8 hPa | 0 mm | - | 152 W/m² | - |
| 1777989656 | 10° C | 53% | 1012.9 hPa | 0 mm | - | 140 W/m² | - |
| 1777989352 | 10° C | 54% | 1012.9 hPa | 0 mm | - | 139 W/m² | - |
| 1777989049 | 10° C | 55% | 1013 hPa | 0 mm | - | 119 W/m² | - |
* Rain latest hour (hover to see other rain measurements)
** Current wind speed in m/s (hover to see current wind gust speed)